Terug naar catalogus

STARLINK-4260

ActiefCommunicatieVLEO
NORAD 52986·PAYLOAD·🇺🇸 United States

Gelanceerd Jul 7, 2022 vanaf Cape Canaveral Space Force Station

Loading…

Volgende Passages (komende 24 uur)

TLE

VersSource: CelesTrak SupGP

Epoch: Sep 15, 2026, 02:06 UTC

1 52986C 22076A   26258.08798611  .00030907  00000+0  88432-3 0  2584
2 52986  53.1572 309.3182 0001195  95.1901 197.8189 15.35381501    18

Volg STARLINK-4260 in realtime met AllMySat

Download on the App Store